• In Uzbekistan
  • List of Countries
  • For 7 days
  • Water Temperature
  • Satellite Maps
  • Weather Map
  • Weather Widgets
  • user-avatar
    Login

    Hourly Weather Naryn

    Today, 16 November, Friday

    Time Temperature Precipitation Wind Pressure Humidity
    00:00 -9°C° 0 mm 1 mps 566 mmHg 77%
    01:00 -10°C° 0 mm 1 mps 566 mmHg 78%
    02:00 -10°C° 0 mm 1 mps 566 mmHg 79%
    03:00 -10°C° 0 mm 1 mps 566 mmHg 80%
    04:00 -11°C° 0 mm 1 mps 566 mmHg 81%
    05:00 -12°C° 0 mm 1 mps 566 mmHg 80%
    06:00 -11°C° 0 mm 1 mps 566 mmHg 78%
    07:00 -11°C° 0 mm 1 mps 567 mmHg 77%
    08:00 -11°C° 0 mm 1 mps 567 mmHg 75%
    09:00 -10°C° 0 mm 1 mps 567 mmHg 71%
    10:00 -9°C° 0 mm 2 mps 567 mmHg 68%
    11:00 -8°C° 0 mm 2 mps 568 mmHg 64%
    12:00 -8°C° 0 mm 2 mps 568 mmHg 61%
    13:00 -8°C° 0 mm 2 mps 568 mmHg 58%
    14:00 -7°C° 0 mm 2 mps 568 mmHg 55%
    15:00 -9°C° 0 mm 2 mps 567 mmHg 56%
    16:00 -9°C° 0 mm 1 mps 567 mmHg 57%
    17:00 -10°C° 0 mm 1 mps 567 mmHg 58%
    18:00 -10°C° 0 mm 1 mps 567 mmHg 57%
    19:00 -13°C° 0 mm 2 mps 568 mmHg 57%
    20:00 -13°C° 0 mm 2 mps 568 mmHg 56%
    21:00 -13°C° 0 mm 2 mps 568 mmHg 55%
    22:00 -13°C° 0 mm 2 mps 567 mmHg 54%
    23:00 -13°C° 0 mm 2 mps 567 mmHg 53%

    Tomorrow, 17 November, Saturday

    Time Temperature Precipitation Wind Pressure Humidity
    00:00 -13°C° 0 mm 2 mps 567 mmHg 52%
    01:00 -13°C° 0 mm 2 mps 567 mmHg 50%
    02:00 -13°C° 0 mm 2 mps 566 mmHg 49%
    03:00 -13°C° 0 mm 2 mps 566 mmHg 48%
    04:00 -13°C° 0 mm 2 mps 566 mmHg 48%
    05:00 -13°C° 0 mm 2 mps 566 mmHg 47%
    06:00 -13°C° 0 mm 2 mps 566 mmHg 45%
    07:00 -13°C° 0 mm 2 mps 566 mmHg 44%
    08:00 -12°C° 0 mm 2 mps 566 mmHg 43%
    09:00 -9°C° 0 mm 2 mps 566 mmHg 40%
    10:00 -7°C° 0 mm 1 mps 566 mmHg 38%
    11:00 -4°C° 0 mm 1 mps 566 mmHg 36%
    12:00 -3°C° 0 mm 1 mps 566 mmHg 36%
    13:00 -3°C° 0 mm 1 mps 565 mmHg 35%
    14:00 -2°C° 0 mm 1 mps 565 mmHg 35%
    15:00 -3°C° 0 mm 1 mps 564 mmHg 35%
    16:00 -6°C° 0 mm 1 mps 564 mmHg 35%
    17:00 -7°C° 0 mm 1 mps 563 mmHg 35%
    18:00 -7°C° 0 mm 1 mps 563 mmHg 35%
    19:00 -8°C° 0 mm 2 mps 563 mmHg 34%
    20:00 -8°C° 0 mm 2 mps 563 mmHg 33%
    21:00 -8°C° 0 mm 2 mps 563 mmHg 33%
    22:00 -8°C° 0 mm 2 mps 563 mmHg 32%
    23:00 -7°C° 0 mm 1 mps 562 mmHg 32%

    Day after tomorrow, 18 November, Sunday

    Time Temperature Precipitation Wind Pressure Humidity
    00:00 -8°C° 0 mm 1 mps 562 mmHg 32%
    01:00 -8°C° 0 mm 1 mps 562 mmHg 32%
    02:00 -8°C° 0 mm 1 mps 562 mmHg 33%
    03:00 -9°C° 0 mm 1 mps 562 mmHg 32%
    04:00 -9°C° 0 mm 1 mps 562 mmHg 31%
    05:00 -10°C° 0 mm 1 mps 562 mmHg 31%
    06:00 -10°C° 0 mm 1 mps 562 mmHg 30%
    07:00 -9°C° 0 mm 1 mps 563 mmHg 29%
    08:00 -9°C° 0 mm 1 mps 563 mmHg 29%
    09:00 -8°C° 0 mm 1 mps 563 mmHg 31%
    10:00 -6°C° 0 mm 1 mps 564 mmHg 32%
    11:00 -4°C° 0 mm 1 mps 564 mmHg 34%
    12:00 -3°C° 0 mm 1 mps 564 mmHg 36%
    13:00 -5°C° 0 mm 2 mps 564 mmHg 38%
    14:00 -5°C° 0 mm 2 mps 564 mmHg 41%
    15:00 -4°C° 0 mm 1 mps 563 mmHg 42%
    16:00 -6°C° 0 mm 1 mps 563 mmHg 44%
    17:00 -8°C° 0 mm 1 mps 563 mmHg 45%
    18:00 -8°C° 0 mm 1 mps 564 mmHg 46%
    19:00 -8°C° 0 mm 1 mps 564 mmHg 47%
    20:00 -9°C° 0 mm 1 mps 564 mmHg 48%
    21:00 -9°C° 0 mm 1 mps 564 mmHg 50%
    22:00 -9°C° 0 mm 1 mps 564 mmHg 51%
    23:00 -10°C° 0 mm 2 mps 564 mmHg 53%

    19 November, Monday

    Time Temperature Precipitation Wind Pressure Humidity
    00:00 -10°C° 0 mm 2 mps 564 mmHg 54%
    01:00 -12°C° 0 mm 2 mps 563 mmHg 54%
    02:00 -12°C° 0 mm 2 mps 563 mmHg 55%
    03:00 -12°C° 0 mm 2 mps 563 mmHg 55%
    04:00 -12°C° 0 mm 2 mps 563 mmHg 54%
    05:00 -12°C° 0 mm 2 mps 563 mmHg 54%
    06:00 -12°C° 0 mm 2 mps 564 mmHg 53%
    07:00 -10°C° 0 mm 2 mps 564 mmHg 52%
    08:00 -10°C° 0 mm 2 mps 564 mmHg 50%
    09:00 -9°C° 0 mm 2 mps 565 mmHg 48%
    10:00 -6°C° 0 mm 1 mps 565 mmHg 46%
    11:00 -4°C° 0 mm 1 mps 566 mmHg 44%
    12:00 -3°C° 0 mm 1 mps 565 mmHg 44%
    13:00 -3°C° 0 mm 1 mps 565 mmHg 44%
    14:00 -2°C° 0 mm 1 mps 565 mmHg 44%
    15:00 -3°C° 0 mm 1 mps 565 mmHg 46%
    16:00 -4°C° 0 mm 1 mps 565 mmHg 47%
    17:00 -6°C° 0 mm 1 mps 565 mmHg 48%
    18:00 -6°C° 0 mm 1 mps 566 mmHg 48%
    19:00 -7°C° 0 mm 1 mps 566 mmHg 49%
    20:00 -7°C° 0 mm 1 mps 566 mmHg 49%
    21:00 -8°C° 0 mm 2 mps 566 mmHg 50%
    22:00 -9°C° 0 mm 2 mps 566 mmHg 50%
    23:00 -9°C° 0 mm 2 mps 566 mmHg 51%

    20 November, Tuesday

    Time Temperature Precipitation Wind Pressure Humidity
    00:00 -10°C° 0 mm 3 mps 565 mmHg 51%
    01:00 -10°C° 0 mm 3 mps 565 mmHg 51%
    02:00 -10°C° 0 mm 3 mps 565 mmHg 52%
    03:00 -10°C° 0 mm 3 mps 565 mmHg 52%
    04:00 -10°C° 0 mm 3 mps 565 mmHg 51%
    05:00 -9°C° 0 mm 3 mps 565 mmHg 51%
    06:00 -9°C° 0 mm 3 mps 565 mmHg 50%
    07:00 -8°C° 0 mm 3 mps 565 mmHg 49%
    08:00 -8°C° 0 mm 3 mps 565 mmHg 47%
    09:00 -5°C° 0 mm 2 mps 566 mmHg 47%
    10:00 -4°C° 0 mm 2 mps 566 mmHg 46%
    11:00 -2°C° 0 mm 2 mps 566 mmHg 46%
    12:00 -2°C° 0 mm 2 mps 566 mmHg 46%
    13:00 +1°C° 0 mm 1 mps 565 mmHg 47%
    14:00 +1°C° 0 mm 1 mps 565 mmHg 48%
    15:00 0°C° 0 mm 1 mps 565 mmHg 50%
    16:00 -2°C° 0 mm 1 mps 564 mmHg 52%
    17:00 -3°C° 0 mm 1 mps 564 mmHg 54%
    18:00 -3°C° 0 mm 1 mps 564 mmHg 55%
    19:00 -3°C° 0 mm 1 mps 564 mmHg 55%
    20:00 -6°C° 0 mm 2 mps 564 mmHg 56%
    21:00 -4°C° 0 mm 1 mps 564 mmHg 57%
    22:00 -4°C° 0 mm 1 mps 563 mmHg 57%
    23:00 -4°C° 0 mm 1 mps 563 mmHg 58%

    21 November, Wednesday

    Time Temperature Precipitation Wind Pressure Humidity
    00:00 -6°C° 0 mm 1 mps 563 mmHg 59%
    01:00 -6°C° 0 mm 1 mps 563 mmHg 61%
    02:00 -6°C° 0 mm 1 mps 562 mmHg 62%
    03:00 -6°C° 0.1 mm 1 mps 562 mmHg 65%
    04:00 -6°C° 0.1 mm 1 mps 563 mmHg 67%
    05:00 -6°C° 0.1 mm 1 mps 563 mmHg 69%
    06:00 -6°C° 0.2 mm 1 mps 563 mmHg 72%
    07:00 -6°C° 0.2 mm 1 mps 563 mmHg 75%
    08:00 -6°C° 0.2 mm 1 mps 564 mmHg 78%
    09:00 -4°C° 0.3 mm 1 mps 564 mmHg 78%
    10:00 -6°C° 0.3 mm 2 mps 564 mmHg 78%
    11:00 -5°C° 0.3 mm 2 mps 564 mmHg 78%
    12:00 -5°C° 0.3 mm 2 mps 564 mmHg 79%
    13:00 -6°C° 0.3 mm 3 mps 564 mmHg 81%
    14:00 -6°C° 0.3 mm 3 mps 564 mmHg 82%
    15:00 -7°C° 0.1 mm 3 mps 564 mmHg 84%
    16:00 -7°C° 0.1 mm 2 mps 564 mmHg 86%
    17:00 -7°C° 0.1 mm 2 mps 564 mmHg 88%
    18:00 -8°C° 0 mm 2 mps 564 mmHg 87%
    19:00 -7°C° 0 mm 1 mps 565 mmHg 86%
    20:00 -7°C° 0 mm 1 mps 565 mmHg 86%
    21:00 -9°C° 0 mm 2 mps 565 mmHg 84%
    22:00 -9°C° 0 mm 2 mps 565 mmHg 82%
    23:00 -10°C° 0 mm 2 mps 564 mmHg 81%
    Show more